Location: Lancaster
(45.1330°N, 74.5000°W)
Time: 10:04:25
(UTC-05:00)

ISS - Visible Passes

Search period start: 17 December 2018 00:00
Search period end: 27 December 2018 00:00
Orbit: 401 x 408 km, 51.6° (Epoch: 18 December)

Date Brightness Start Highest point End Pass type
(mag) Time Alt. Az. Time Alt. Az. Time Alt. Az.
23 Dec -1.0 06:23:06 10° S 06:25:40 21° SE 06:28:15 10° E visible
24 Dec -0.6 05:32:16 10° SSE 05:33:38 12° SE 05:35:00 10° ESE visible
25 Dec -2.7 06:14:15 10° SW 06:17:24 45° SE 06:20:35 10° ENE visible
26 Dec -1.7 05:23:56 20° S 05:25:15 26° SE 05:28:03 10° E visible
26 Dec -3.6 06:58:20 10° WSW 07:01:35 53° NNW 07:04:48 10° NE visible
